Regional Weather Roundup
Issued by NWS Grand Forks, ND

Home | Current Version | Previous Version | Text Only | Print | Product List | Glossary On
Versions: 1 2 3 4 5 6 7 8 9 10 11 12 13 14 15 16 17 18 19 20 21 22 23 24 25 26 27 28 29 30 31 32 33 34 35 36 37 38 39 40 41 42 43 44 45 46 47 48 49 50
000
ASUS43 KFGF 120731
RWRFGF
PRAIRIE TO PINES  WEATHER ROUNDUP
NATIONAL WEATHER SERVICE EASTERN NORTH DAKOTA/GRAND FORKS ND
200 AM CDT SAT JUL 12 2014

 **SATELLITE DATA USED TO AUGMENT SKY COVER AT AUTOMATED STATIONS**
 *****  WEATHER ACROSS EASTERN NORTH DAKOTA  *****

CITY           SKY/WX    TMP DP  RH WIND       PRES   REMARKS
GRAND FORKS    PTCLDY    60  56  86 NW5       30.02F
GRAND FRKS AFB PTCLDY    59  58  97 NW6       30.04F
GRAND FRKS NWS   N/A     59 N/A N/A NW1         N/A
DEVILS LAKE    CLEAR     59  54  82 NW6       30.05F
FARGO          MOCLDY    65  57  75 NW3       30.03S
WAHPETON ARPT  CLOUDY    68  52  56 N9        30.03S
$$

 ***** WEATHER ACROSS CENTRAL AND WESTERN NORTH DAKOTA  *****

CITY           SKY/WX    TMP DP  RH WIND       PRES   REMARKS
BISMARCK       CLOUDY    66  58  75 NE5       30.10F
MINOT          PTCLDY    60  53  77 W9        30.09F
JAMESTOWN      MOCLDY    64  56  75 N8        30.06F
MINOT AFB      CLEAR     56  56  99 W7        30.09F
GARRISON         N/A     59  57  93 CALM      30.11S
WILLISTON      MOCLDY    58  53  84 E3        30.12F
DICKINSON      MOCLDY    63  57  81 E5        30.11F
HETTINGER      TSTM      61  57  87 N7        30.13R FOG
$$

 *****  OTHER AIRPORT OBSERVATIONS IN OUR AREA  *****

CITY           SKY/WX    TMP DP  RH WIND       PRES   REMARKS
WALHALLA         N/A     61  55  82 W7          N/A
GRAFTON AIRPOR FAIR      63  57  82 NW7       30.02F
VALLEY CITY AR CLOUDY    63  63 100 N7        30.06S
CANDO          FAIR      54  52  94 NW6       30.07F
CAVALIER APRT  FAIR      59  54  82 W8        30.02F
GWINNER        SUNNY     66  59  77 N8        30.05F
SHEYENNE NWR     N/A     68  56  64 N3        29.95
ROLLA          CLOUDY    54  54 100 NW8       30.09F
 ***** THE ABOVE OBSERVATIONS ARE NON NWS ARE NOT QUALITY
       CONTROLLED AND MAY MIS-REPORT RAIN FOR SNOW...
$$

  *****  WEATHER ACROSS NORTHERN MINNESOTA  *****

CITY           SKY/WX    TMP DP  RH WIND       PRES   REMARKS
FLAG ISLAND    CLEAR     63  55  77 W6        29.98S HAZE
WARROAD        CLEAR     61  55  82 CALM      30.01S
ROSEAU         CLEAR     59  54  82 CALM      30.01S
HALLOCK        CLEAR     57  54  88 CALM      30.02S
THF RVR FALLS  PTCLDY    61  55  82 CALM      30.03S
BAUDETTE       PTCLDY    60  55  83 W3        30.01S
WASKISH        CLEAR     64  57  77 NW1       30.01S
CROOKSTON      PTCLDY    59  54  82 CALM      30.03S
$$
  *****  WEATHER ACROSS CENTRAL AND WEST MINNESOTA  *****

CITY           SKY/WX    TMP DP  RH WIND       PRES   REMARKS
FOSSTON        PTCLDY    55  50  82 CALM      30.04S
BEMIDJI        PTCLDY    60  53  76 W5        30.02S
PARK RAPIDS    MOCLDY    64  57  78 NW3       30.03S
ELBOW LAKE     NOT AVBL
WADENA         MOCLDY    63  59  88 NW5       30.03S
DETROIT LAKES  MOCLDY    66  57  72 VRB3      30.05S
MOORHEAD       MOCLDY    63  63 100 CALM      30.04S
FERGUS FALLS   MOCLDY    68  55  64 NE3       30.02S
MORRIS MN      MOCLDY    72  66  83 N8        30.00S
STAPLES        MOCLDY    64  59  82 NW5       30.02S
$$
  *****  WEATHER ELSEWHERE ACROSS MINNESOTA  *****

CITY           SKY/WX    TMP DP  RH WIND       PRES   REMARKS
DULUTH         FOG       67  66  97 W8        29.99S VSB 1/2
INTRNTL FALLS  CLEAR     54  52  93 CALM      29.99R
ELY            CLEAR     57  57 100 CALM      29.98S
CLOQUET        CLEAR     64  63  94 SW5       29.99F
WHEATON        CLOUDY    68  57  68 N7        30.03F
BRAINERD       MOCLDY    68  62  81 CALM      30.01S
HIBBING        CLEAR     54  53  97 CALM      29.99S FOG
ALEXANDRIA     MOCLDY    70  61  73 N7        30.03F
SAINT CLOUD    FOG       70  66  88 SE3       29.99S VSB 1/4
MINNEAPOLIS    MOCLDY    73  69  87 S3        29.99F
$$

  *****  WEATHER ACROSS SOUTH DAKOTA  *****

CITY           SKY/WX    TMP DP  RH WIND       PRES   REMARKS
SIOUX FALLS    CLOUDY    73  71  93 S7        30.02R FOG
BROOKINGS      NOT AVBL
WATERTOWN      CLOUDY    70  66  87 N5        30.03S
HURON          LGT RAIN  75  70  84 E3        29.97F
SISSETON         N/A     68  63  84 N7        30.02S
ABERDEEN       CLOUDY    68  60  75 NE7       30.03S
MITCHELL       CLOUDY    76  74  93 S5        30.02R
PIERRE         CLOUDY    74  68  81 NE9       30.00S
MOBRIDGE       CLOUDY    70  58  65 NE9       30.04S
RAPID CITY     CLOUDY    67  57  70 SW5       30.12F
$$

  *****  SOME WEATHER IN NEARBY STATES *****

CITY           SKY/WX    TMP DP  RH WIND       PRES   REMARKS
GLASGOW MT     MOCLDY    60  55  83 E7        30.13S
GREAT FALLS MT CLEAR     65  53  65 E8        30.17S
CHEYENNE WY    CLOUDY    60  59  96 E7        30.25F
SCOTTSBLUFF NE MOCLDY    62  61  96 CALM      30.18R
OMAHA NE       MOCLDY    77  73  87 SE5       29.97S
DES MOINES IA  CLOUDY    75  72  90 E5        29.99F THUNDER
DAVENPORT IA   MOCLDY    74  66  76 S10       30.04F
CHICAGO IL     CLOUDY    72  59  63 S5        30.10F
EAU CLAIRE WI  CLOUDY    72  67  84 S6        30.01F
LA CROSSE WI   PTCLDY    70  65  84 SE5       30.02F
$$

  *****  SOME NATIONAL WEATHER *****

CITY           SKY/WX    TMP DP  RH WIND       PRES   REMARKS
LA GUARDIA NY  PTCLDY    72  64  76 CALM      30.21F
RALEIGH NC     PTCLDY    68  66  94 CALM      30.22S FOG
ATLANTA GA     PTCLDY    72  69  90 E3        30.17F
NEW ORLEANS LA CLOUDY    76  73  91 CALM      30.12S
OKLAHOMA CITY  PTCLDY    76  62  62 S6        30.12R
ALBUQUERQUE NM PTCLDY    71  53  52 N6        30.24F
SALT LAKE CITY CLEAR     72  58  61 SW3       30.09S
LOS ANGELES CA PTCLDY    67  61  81 SW6       30.00R
BOISE ID       CLOUDY    84  40  21 W9        30.00R
SEATTLE WA     PTCLDY    71  54  54 CALM      30.03R
$$

*** WEATHER ACROSS MANITOBA...SASKATCHEWAN AND ONTARIO ***
                ***ONTARIO***

CITY           SKY/WX    TMP DP  RH WIND       PRES   REMARKS
GERALDTON      MOCLDY    61  59  94 CALM      29.86F
THUNDER BAY    FOG       52  52 100 W3        29.91  VSB 1/2
SIOUX LOOKOUT  CLEAR     59  54  82 NW6       29.94
TORONTO        MOCLDY    64  55  72 NE2       30.16F
BIG TROUT LK   CLOUDY    59  50  72 W13G18    29.71R
PICKLE LAKE    NOT AVBL
DRYDEN         CLEAR     59  52  77 W6        29.96R
KENORA         CLEAR     63  54  72 W7        29.99F
$$
                *** MANITOBA***

CITY           SKY/WX    TMP DP  RH WIND       PRES   REMARKS
BRANDON        CLEAR     54  52  94 W7        30.07S
DAUPHIN        CLEAR     57  52  82 SW10      30.02S
ISLAND LAKE    PTCLDY    59  48  67 W13       29.80F
PILOT MOUND      N/A     52  50  93 NW5         N/A
THE PAS        PTCLDY    59  50  72 W8        29.87S
THOMPSON       PTCLDY    48  46  93 SW8       29.72S
WINNIPEG       PTCLDY    57  55  94 W7        30.02
LYNN LAKE      CLEAR     50  46  87 W6        29.75S
CHURCHILL      LGT RAIN  48  46  93 NW21G28   29.41F FOG
GILLAM         PTCLDY    54  45  71 NW24G36   29.61R
$$
                ***SASKATCHEWAN***

CITY           SKY/WX    TMP DP  RH WIND       PRES   REMARKS
ESTEVAN        CLEAR     54  52  94 W2        30.12F
KINDERSLEY     PTCLDY    55  50  82 VRB2      30.12S
LLOYDMINSTER   CLEAR     55  50  82 SW10      30.05S
PRINCE ALBERT  PTCLDY    57  54  88 SW8       29.97
REGINA         CLEAR     52  50  93 SW7       30.11F
YORKTON        CLEAR     59  52  77 SW8       30.06S HAZE
N. BATTLEFORD  CLEAR     54  52  94 W5        30.07S
LA RONGE       PTCLDY    61  52  72 W8        29.88F
SASKATOON      CLEAR     55  54  94 SW8       30.07F
SWIFT CURRENT  CLEAR     50  46  87 SW9       30.14S
$$
NOTE: THESE ARE AUTOMATED STATIONS WITH LIMITED QUALITY CONTROL
      "FAIR" INDICATES FEW OR NO CLOUDS BELOW 12,000 FEET WITH NO
      SIGNIFICANT WEATHER AND/OR OBSTRUCTIONS TO VISIBILITY.
      SKY/WX - SKY CONDITION AND SIGNIFICANT WEATHER.
      TMP - AIR TEMPERATURE.    DP   - DEWPOINT TEMPERATURE.
      RH  - RELATIVE HUMIDITY.  PRES - PRESSURE.
      HX  - HEAT INDEX.         WCI  - WIND CHILL INDEX.
$


USA.gov is the U.S. government's official web portal to all federal, state and local government web resources and services.